Location: Unspecified
(0.0000°N, 0.0000°E)
Time: 09:58:53
(UTC+00:00)

Vanguard 3 - Pass Details

Date: 08 October 2022
Orbit: 509 x 3255 km, 33.3° (Epoch: 29 November)

Event Time Altitude Azimuth Distance (km) Brightness Sun altitude
Rises 21:06:05 0° 230° (SW) 7,224 12.5 -49.3°
Reaches altitude 10° 21:14:48 10° 210° (SSW) 6,082 11.8 -51.4°
Maximum altitude 21:24:26 16° 179° (S) 5,175 11.2 -53.8°
Enters shadow 21:27:58 15° 165° (SSE) 5,032 11.0 -54.7°
